Regional Weather Roundup
Issued by NWS

Home | Current Version | Previous Version | Graphics & Text | Print | Product List | Glossary On
Versions: 1 2 3 4 5 6 7 8 9 10 11 12 13 14 15 16 17 18 19 20 21 22 23 24 25 26 27 28 29 30 31 32 33 34 35 36 37 38 39 40 41 42 43 44 45 46 47 48 49 50
951
ASUS44 KLIX 230605
RWRLA
LOUISIANA WEATHER ROUNDUP
NATIONAL WEATHER SERVICE NEW ORLEANS LA
100 AM CDT WED APR 23 2014

NOTE: "FAIR" INDICATES FEW OR NO CLOUDS BELOW 12,000 FEET WITH NO
      SIGNIFICANT WEATHER AND/OR OBSTRUCTIONS TO VISIBILITY.
      SKY/WX - SKY CONDITION AND SIGNIFICANT WEATHER.
      TMP - AIR TEMPERATURE.    DP   - DEWPOINT TEMPERATURE.
      RH  - RELATIVE HUMIDITY.  PRES - PRESSURE.
      HX  - HEAT INDEX.         WCI  - WIND CHILL INDEX.

*  THESE STATIONS ARE NOT NWS OR FAA STATIONS AND ARE NOT UNDER
   NWS QUALITY CONTROL.

LAZ040-048-061>063-065-066-069-230700-
SOUTHEAST LOUISIANA

CITY           SKY/WX    TMP DP  RH WIND       PRES   REMARKS
N.O. AUDUBON     N/A     66  64  92 MISG        N/A
6HR MIN TEMP:  65; 6HR MAX TEMP:  77;

N.O. INTL ARPT FAIR      67  64  90 CALM      29.93S
6HR MIN TEMP:  65; 6HR MAX TEMP:  75;

N.O. LAKEFRONT FAIR      69  65  86 N3        29.93F
6HR MIN TEMP:  69; 6HR MAX TEMP:  73;

N.O. DOWNTOWN* FAIR      70  61  73 CALM      29.94S
6HR MIN TEMP:  70; 6HR MAX TEMP:  77;

SLIDELL        FAIR      61  58  90 CALM      29.92S
6HR MIN TEMP:  60; 6HR MAX TEMP:  75;

BATON ROUGE    FAIR      62  59  90 CALM      29.94F
6HR MIN TEMP:  62; 6HR MAX TEMP:  77;

BOOTHVILLE     FAIR      67  67 100 W5        29.93S FOG
6HR MIN TEMP:  67; 6HR MAX TEMP:  73;

BELLE CHASSE   FAIR      61  57  88 CALM      29.92F FOG
6HR MIN TEMP:  61; 6HR MAX TEMP:  73;

BOGALUSA*        N/A     60  57  89 CALM      29.95S
6HR MIN TEMP:  59; 6HR MAX TEMP:  75;

GALLIANO*      FOG       63  62  95 CALM      29.94S VSB 1/4
6HR MIN TEMP:  63; 6HR MAX TEMP:  76;

NEW ROADS*     FAIR      60  59  96 W8        29.94F
6HR MIN TEMP:  60; 6HR MAX TEMP:  76;

GONZALES*      FAIR      62  62 100 CALM      29.93F
6HR MIN TEMP:  62; 6HR MAX TEMP:  77;

HAMMOND*       FAIR      61  57  88 CALM      29.95S
HOUMA*         FOG       67  64  93 CALM      29.94S VSB<1/4
6HR MIN TEMP:  66; 6HR MAX TEMP:  76;

PORT FOURCHON* CLOUDY    72  68  88 W8        29.96S

$$

LAZ041-044-053-054-230700-
SOUTHWEST LOUISIANA

CITY           SKY/WX    TMP DP  RH WIND       PRES   REMARKS
LAKE CHARLES   FAIR      63  62  97 CALM      29.94S FOG
6HR MIN TEMP:  63; 6HR MAX TEMP:  80;

LAFAYETTE      FAIR      64  62  93 CALM      29.95S
6HR MIN TEMP:  64; 6HR MAX TEMP:  78;

PATTERSON        N/A     63  61  94 CALM      29.98S VSB 1/4
6HR MIN TEMP:  63; 6HR MAX TEMP:  75;

SALT POINT       N/A     70  67  90 CALM      29.94S
6HR MIN TEMP:  70; 6HR MAX TEMP:  75;

NEW IBERIA     FAIR      63  60  90 CALM      29.95S
6HR MIN TEMP:  62; 6HR MAX TEMP:  77;

CHENAULT AIRPK FOG       65  65 100 CALM      29.96S VSB<1/4
6HR MIN TEMP:  65; 6HR MAX TEMP:  80;


$$

LAZ027-028-230700-
CENTRAL LOUISIANA

CITY           SKY/WX    TMP DP  RH WIND       PRES   REMARKS
FORT POLK      FAIR      61  58  90 CALM      29.95S
6HR MIN TEMP:  61; 6HR MAX TEMP:  78;

ALEXANDRIA INT FAIR      61  60  97 CALM      29.94S
6HR MIN TEMP:  61; 6HR MAX TEMP:  77;

ALEXANDRIA     FAIR      59  57  93 CALM      29.95S FOG
6HR MIN TEMP:  58; 6HR MAX TEMP:  80;


$$

LAZ001-002-230700-
NORTHWEST LOUISIANA

CITY           SKY/WX    TMP DP  RH WIND       PRES   REMARKS
SHREVEPORT     FAIR      62  59  90 CALM      29.94S
6HR MIN TEMP:  62; 6HR MAX TEMP:  80;

BARKSDALE AFB  FAIR      61  58  91 SE3       29.94S
6HR MIN TEMP:  61; 6HR MAX TEMP:  81;

DTN SHREVEPORT FAIR      62  58  86 CALM      29.94F
6HR MIN TEMP:  61; 6HR MAX TEMP:  79;


$$

LAZ014-016-230700-
NORTHEAST LOUISIANA

CITY           SKY/WX    TMP DP  RH WIND       PRES   REMARKS
MONROE         FAIR      60  58  92 CALM      29.96S FOG
6HR MIN TEMP:  58; 6HR MAX TEMP:  75;

TALLULAH       FAIR      61  59  93 CALM      29.95S
6HR MIN TEMP:  61; 6HR MAX TEMP:  76;


$$




USA.gov is the U.S. government's official web portal to all federal, state and local government web resources and services.